CW3081 Weather Reports


Display with metric or nautical units.
time (UTC)temp
F
wind
direction
speed
MPH
gust
MPH
rain 1hr
in
rain 24hr
in
rain mn
in
humidity
%
barometer
mb
20260504081551 54 0 0.0 1.0 0.00 0.00 0.00 68 1013.7
20260504044542 55 217 0.0 1.0 0.00 0.00 0.00 65 1014.8
20260504043042 55 215 0.0 1.0 0.00 0.00 0.00 64 1015.0
20260504041546 54 215 0.0 1.0 0.00 0.00 0.00 65 1015.1
20260504040107 53 208 0.0 1.0 0.00 0.00 0.00 67 1015.3
20260504034545 52 0 0.0 0.0 0.00 0.00 0.00 72 1015.5
20260504033047 52 0 0.0 0.0 0.00 0.00 0.00 71 1015.6
20260504031542 53 0 0.0 0.0 0.00 0.00 0.00 69 1015.6
20260504030049 53 0 0.0 1.0 0.00 0.00 0.00 71 1015.7
20260504024547 55 0 0.0 0.0 0.00 0.00 0.00 70 1015.7
20260504023053 56 0 0.0 0.0 0.00 0.00 0.00 62 1015.6
20260504021542 56 207 0.0 1.0 0.00 0.00 0.00 61 1015.3
20260504020042 56 247 0.0 1.0 0.00 0.00 0.00 61 1015.3
20260504014559 56 247 0.0 1.0 0.00 0.00 0.00 61 1015.2
20260504013046 57 0 0.0 0.0 0.00 0.00 0.00 60 1015.0
20260504011543 57 0 0.0 1.0 0.00 0.00 0.00 61 1014.9
20260504010054 58 247 0.0 1.0 0.00 0.00 0.00 59 1015.1
20260504004549 60 0 0.0 0.0 0.00 0.00 0.00 57 1015.4
20260504003055 62 0 0.0 0.0 0.00 0.00 0.00 52 1015.3
20260504001601 63 0 0.0 1.0 0.00 0.00 0.00 47 1015.4
20260504000047 64 0 0.0 1.0 0.00 0.00 0.00 44 1015.3
20260503234544 64 247 0.0 1.0 0.00 0.00 0.00 44 1015.5
20260503233048 65 243 0.0 2.0 0.00 0.00 0.00 45 1015.8
20260503231548 65 0 0.0 1.0 0.00 0.00 0.00 44 1015.9
20260503230047 66 253 0.0 3.0 0.00 0.00 0.00 42 1015.9
20260503224546 66 282 1.0 3.0 0.00 0.00 0.00 41 1016.0
20260503223050 66 282 1.0 3.0 0.00 0.00 0.00 40 1016.0
20260503221553 66 234 0.0 2.0 0.00 0.00 0.00 41 1016.3
20260503220044 67 256 2.0 3.0 0.00 0.00 0.00 39 1016.5
20260503214547 66 243 1.0 3.0 0.00 0.00 0.00 41 1016.7
20260503213040 66 267 1.0 3.0 0.00 0.00 0.00 43 1017.0
20260503211545 66 250 0.0 3.0 0.00 0.00 0.00 41 1017.1
20260503210044 66 260 2.0 3.0 0.00 0.00 0.00 39 1017.5
20260503204543 66 195 1.0 4.0 0.00 0.00 0.00 42 1017.5
20260503203047 66 285 1.0 3.0 0.00 0.00 0.00 43 1017.8
20260503201546 66 237 0.0 3.0 0.00 0.00 0.00 42 1018.1
20260503200050 66 271 1.0 3.0 0.00 0.00 0.00 42 1018.5
20260503194543 66 257 1.0 3.0 0.00 0.00 0.00 42 1018.7
20260503193054 65 265 2.0 4.0 0.00 0.00 0.00 39 1019.0
20260503191546 66 328 2.0 3.0 0.00 0.00 0.00 38 1019.2
20260503190051 66 199 0.0 3.0 0.00 0.00 0.00 41 1019.4
20260503184556 66 219 1.0 3.0 0.00 0.00 0.00 39 1019.6
20260503183107 65 0 0.0 3.0 0.00 0.00 0.00 38 1019.9
20260503181614 65 0 0.0 3.0 0.00 0.00 0.00 42 1019.9
20260503180047 64 283 0.0 3.0 0.00 0.00 0.00 43 1020.3
20260503174544 63 257 1.0 3.0 0.00 0.00 0.00 43 1020.3
20260503173055 63 153 0.0 3.0 0.00 0.00 0.00 43 1020.4
20260503171542 62 0 1.0 2.0 0.00 0.00 0.00 47 1020.6